[[{"header":{"parameterUnit":"m.s-1","parameterCategory":1,"la1":30.2991,"la2":30.254,"lo1":-89.0895,"lo2":-89.0444,"dy":0.0017,"dx":0.0017,"nx":28,"ny":28,"refTime":"2025-05-25T09:00:00:Z","depth":0,"parameterNumber":2,"parameterNumberName":"U-component_of_WINDS"},"data":[0,0,0,0,0,0,0,0,0,0,0,0,0,0,0,0,0,0,0,0,0,0,0,0,0,0,0,0,0,0,0,0,0,0,0,0,0,0,0,0,0,0,0,0,0,0,0,0,0,0,0,0,0,0,0,0,0,0,1.0593,1.0593,0,1.0643,1.0643,1.0644,1.0638,1.0637,1.0637,1.0636,1.0687,1.0689,1.0691,0,0,0,0,0,0,0,0,0,0,0,0,0,1.0492,1.0494,1.0593,1.0593,1.0594,1.0643,1.0643,1.0644,1.0638,1.0637,1.0636,1.0635,1.0687,1.0689,1.0692,0,0,0,0,0,0,0,0,0,0,0,0,0,1.0538,1.0494,1.0593,1.0597,1.0598,1.0643,1.0643,1.0644,1.0639,1.0637,1.0636,1.0635,1.0686,1.0689,1.0692,1.0736,0,0,1.0702,1.0703,0,0,0,0,0,0,0,0,1.0535,1.0542,1.0596,1.0597,1.0598,1.0633,1.0627,1.0675,1.0639,1.0623,1.0636,1.0634,1.067,1.0675,1.0687,1.0738,1.074,1.0702,1.0704,1.0705,1.0706,0,0,0,0,0,0,0,1.0532,1.054,1.0613,1.0597,1.0598,1.0596,1.0602,1.0636,1.0653,1.0624,1.0624,1.063,1.0671,1.0684,1.0688,1.0741,1.0702,1.0705,1.0707,1.0708,1.0828,1.083,0,0,0,0,0,0,1.0528,1.0537,1.0611,1.0614,1.0563,1.0599,1.0605,1.0623,1.0652,1.0656,1.0631,1.063,1.0679,1.0684,1.069,1.0741,1.0705,1.0708,1.071,1.0827,1.0829,1.083,0,0,0,0,0,0,1.0526,1.0535,1.0609,1.0575,1.0585,1.0602,1.0622,1.0625,1.0637,1.0657,1.066,1.0641,1.0678,1.0685,1.0724,1.0742,1.071,1.0713,1.0826,1.0828,1.0829,1.0844,0,0,0,0,0,0,1.0523,1.0534,1.0551,1.0576,1.0587,1.0642,1.0624,1.0626,1.0643,1.0642,1.0668,1.0671,1.0678,1.0719,1.0727,1.0746,1.0715,1.0824,1.0826,1.0829,1.0842,1.0846,1.085,0,0,0,0,0,1.0519,1.0554,1.0552,1.0561,1.0608,1.0643,1.065,1.0656,1.0645,1.0661,1.0674,1.067,1.0739,1.0723,1.0732,1.0752,1.0823,1.0826,1.0829,1.084,1.0845,1.085,0,0,0,0,0,0,1.0531,1.0557,1.0555,1.0599,1.0619,1.0642,1.0664,1.0662,1.0686,1.0684,1.0692,1.0698,1.0736,1.0749,1.073,1.0795,1.0779,1.0784,1.0785,1.079,1.0794,1.079,1.0718,0,0,0,0,0,1.0538,1.0565,1.0586,1.0622,1.0633,1.0647,1.0662,1.0666,1.0687,1.0696,1.0711,1.0732,1.0758,1.0775,1.0801,1.0844,1.0849,1.0863,1.0867,1.087,1.0873,1.0895,1.0901,1.084,1.084,1.084,0,0,1.0554,1.0572,1.0588,1.0625,1.0641,1.0668,1.0654,1.0683,1.0703,1.07,1.0737,1.0749,1.0773,1.0813,1.0832,1.0825,1.0892,1.0874,1.0876,1.0878,1.0899,1.0905,1.091,1.0842,1.0841,1.0841,0,0,1.0596,1.0613,1.0643,1.0659,1.0684,1.0693,1.07,1.0724,1.0732,1.0769,1.0766,1.079,1.0836,1.0852,1.0867,1.0914,1.091,1.0922,1.0942,1.0963,1.0968,1.0972,1.0987,1.0993,1.0926,1.0926,1.0926,0,1.0612,1.0652,1.0659,1.0688,1.0704,1.0703,1.0733,1.0749,1.078,1.0791,1.0783,1.0839,1.0855,1.0898,1.0909,1.0922,1.093,1.0918,1.0967,1.0971,1.0975,1.0989,1.0995,1.0927,1.0927,1.0927,1.0926,0,1.067,1.0698,1.072,1.0749,1.0768,1.0798,1.0809,1.0827,1.0829,1.0838,1.0875,1.0894,1.0923,1.0934,1.0936,1.0977,1.0971,1.0965,1.0949,1.0982,1.0995,1.1001,1.0928,1.0928,1.0928,1.0927,0,0,1.0719,1.0752,1.076,1.0772,1.0798,1.082,1.085,1.0877,1.0891,1.0913,1.0937,1.0975,1.0969,1.0985,1.099,1.1009,1.1042,1.1,1.1,1.1005,1.1086,1.1089,1.1095,1.1041,1.1042,1.1043,1.1083,0,1.0762,1.0813,1.082,1.0865,1.089,1.0889,1.0915,1.0933,1.0943,1.0965,1.0977,1.1003,1.0994,1.1003,1.1022,1.1034,1.1058,1.1031,1.1062,1.1063,1.1054,1.1103,1.1106,1.1143,1.1089,1.109,1.109,0,1.0818,1.084,1.0888,1.0909,1.092,1.0943,1.0967,1.0989,1.101,1.1016,1.1033,1.1035,1.1065,1.1049,1.109,1.1071,1.1085,1.1092,1.1094,1.1095,1.1077,1.1103,1.1156,1.116,1.1099,1.1098,1.1098,0,1.0847,1.0889,1.0922,1.0933,1.096,1.0975,1.0987,1.1007,1.1022,1.1044,1.1054,1.108,1.1093,1.1113,1.1121,1.1109,1.116,1.1146,1.1165,1.1164,1.1174,1.1173,1.1227,1.1186,1.1186,1.1186,1.1186,0,1.0892,1.0921,1.0935,1.0955,1.0986,1.0994,1.1025,1.1037,1.1054,1.1076,1.1078,1.1098,1.1109,1.1132,1.1139,1.117,1.1177,1.1182,1.1183,1.118,1.1179,1.1187,1.1184,1.1187,1.1187,1.1187,1.1187,0,1.0928,1.0939,1.0975,1.0997,1.1003,1.1025,1.1043,1.1063,1.1072,1.11,1.1107,1.1122,1.1148,1.1159,1.1192,1.1197,1.1232,1.1232,1.1224,1.1224,1.1242,1.1239,1.1301,1.1309,1.1265,1.1265,1.1266,0,1.0956,1.0977,1.1001,1.1015,1.1027,1.1051,1.1067,1.1075,1.1091,1.1116,1.1132,1.1158,1.1179,1.1221,1.1235,1.1259,1.1259,1.1279,1.1263,1.1259,1.1257,1.1255,1.1256,1.1281,1.1282,1.1282,1.1283,0,1.1002,1.1006,1.1028,1.1052,1.107,1.1089,1.1108,1.112,1.1131,1.1149,1.1175,1.1192,1.1224,1.1249,1.1275,1.1287,1.1286,1.1288,1.1293,1.129,1.1283,1.1285,1.123,1.1286,1.1286,1.1285,1.1285,1.1285,1.1033,1.1051,1.107,1.1094,1.1109,1.1127,1.1145,1.1157,1.1179,1.1205,1.1209,1.1237,1.1257,1.129,1.1303,1.1325,1.132,1.1328,1.133,1.1331,1.1331,1.1282,1.133,1.133,1.133,1.133,1.133,0,1.1077,1.1089,1.1112,1.1137,1.1156,1.1154,1.1174,1.119,1.1214,1.1232,1.1253,1.1282,1.1307,1.1322,1.1347,1.1361,1.1361,1.1367,1.1365,1.1368,1.1335,1.1327,1.1366,1.1366,1.1366,1.1366,1.1366,1.1366,1.1103,1.1133,1.1139,1.1176,1.1188,1.1215,1.1226,1.1242,1.1256,1.1289,1.1309,1.1319,1.1336,1.1361,1.1384,1.1388,1.1396,1.1401,1.1405,1.1374,1.137,1.1366,1.1359,1.1404,1.1404,1.1435,1.1435,1.1435]},{"header":{"parameterUnit":"m.s-1","parameterCategory":1,"la1":30.2991,"la2":30.254,"lo1":-89.0895,"lo2":-89.0444,"dy":0.0017,"dx":0.0017,"nx":28,"ny":28,"refTime":"2025-05-25T09:00:00:Z","depth":0,"parameterNumber":3,"parameterNumberName":"V-component_of_WINDS"},"data":[0,0,0,0,0,0,0,0,0,0,0,0,0,0,0,0,0,0,0,0,0,0,0,0,0,0,0,0,0,0,0,0,0,0,0,0,0,0,0,0,0,0,0,0,0,0,0,0,0,0,0,0,0,0,0,0,0,0,2.5406,2.5407,0,2.548,2.5481,2.5482,2.5474,2.5473,2.5472,2.547,2.5539,2.5542,2.5545,0,0,0,0,0,0,0,0,0,0,0,0,0,2.525,2.5253,2.5406,2.5407,2.5408,2.548,2.5481,2.5482,2.5474,2.5473,2.5471,2.547,2.5538,2.5542,2.5545,0,0,0,0,0,0,0,0,0,0,0,0,0,2.532,2.5254,2.5406,2.5413,2.5414,2.548,2.5481,2.5482,2.5474,2.5473,2.5471,2.5469,2.5537,2.5542,2.5546,2.5607,0,0,2.5559,2.5561,0,0,0,0,0,0,0,0,2.5316,2.5326,2.5411,2.5412,2.5414,2.5466,2.5451,2.5524,2.5475,2.5451,2.547,2.5468,2.5516,2.5522,2.5539,2.561,2.5613,2.556,2.5562,2.5564,2.5565,0,0,0,0,0,0,0,2.5311,2.5323,2.5435,2.5412,2.5414,2.541,2.5418,2.5465,2.5492,2.5453,2.5453,2.5462,2.5516,2.5535,2.5541,2.5614,2.5559,2.5563,2.5566,2.5568,2.5737,2.5739,0,0,0,0,0,0,2.5306,2.5319,2.5433,2.5437,2.536,2.5414,2.5423,2.5451,2.5492,2.5496,2.5463,2.5461,2.5529,2.5536,2.5543,2.5616,2.5564,2.5568,2.5571,2.5735,2.5738,2.574,0,0,0,0,0,0,2.5303,2.5316,2.543,2.5378,2.5392,2.5419,2.545,2.5453,2.5472,2.55,2.5504,2.5478,2.5528,2.5537,2.5591,2.5619,2.557,2.5574,2.5733,2.5736,2.5739,2.5764,0,0,0,0,0,0,2.5298,2.5315,2.534,2.5379,2.5395,2.5479,2.5452,2.5456,2.5481,2.5479,2.5514,2.5518,2.5527,2.5585,2.5596,2.5624,2.5577,2.5731,2.5735,2.5738,2.576,2.5767,2.5772,0,0,0,0,0,2.5293,2.5343,2.5342,2.5355,2.5427,2.548,2.5489,2.55,2.5483,2.5507,2.5524,2.5517,2.5615,2.5591,2.5603,2.5632,2.5729,2.5733,2.5738,2.5758,2.5766,2.5772,0,0,0,0,0,0,2.5305,2.5348,2.5347,2.5412,2.5443,2.5479,2.551,2.5508,2.5543,2.5539,2.5549,2.5557,2.5611,2.5627,2.56,2.5693,2.5669,2.5676,2.568,2.5688,2.5694,2.5688,2.5581,0,0,0,0,0,2.5316,2.5357,2.5392,2.5446,2.5461,2.5483,2.5506,2.5512,2.5544,2.5556,2.5577,2.5606,2.5643,2.5666,2.5702,2.5763,2.577,2.579,2.5796,2.58,2.5805,2.5837,2.5846,2.5754,2.5754,2.5754,0,0,2.5337,2.5366,2.5391,2.5449,2.5473,2.5514,2.5494,2.5538,2.5567,2.5562,2.5614,2.5631,2.5664,2.5721,2.5748,2.5736,2.5833,2.5806,2.581,2.5812,2.5842,2.5851,2.5859,2.5757,2.5756,2.5756,0,0,2.5396,2.5424,2.5471,2.5496,2.5534,2.5549,2.556,2.5597,2.5608,2.5662,2.5658,2.5692,2.5756,2.5779,2.5799,2.5867,2.5861,2.5879,2.5909,2.594,2.5947,2.5954,2.5976,2.5984,2.5884,2.5884,2.5884,0,2.5417,2.5481,2.5494,2.5539,2.5563,2.5563,2.5609,2.5633,2.5679,2.5695,2.5683,2.5762,2.5784,2.5846,2.5863,2.588,2.5891,2.5873,2.5946,2.5952,2.5958,2.5979,2.5988,2.5886,2.5886,2.5885,2.5885,0,2.5503,2.5547,2.558,2.5628,2.5656,2.5701,2.5719,2.5746,2.575,2.5764,2.5818,2.5844,2.5885,2.59,2.5903,2.5963,2.5954,2.5944,2.5919,2.5968,2.5988,2.5997,2.5888,2.5888,2.5887,2.5887,0,0,2.5571,2.5627,2.5638,2.5659,2.5702,2.5734,2.5779,2.582,2.5842,2.5874,2.591,2.5964,2.5955,2.5977,2.5983,2.601,2.606,2.5996,2.5997,2.6005,2.6125,2.6131,2.614,2.6058,2.6059,2.6061,2.6121,0,2.5633,2.5714,2.5727,2.5797,2.5836,2.5837,2.5875,2.5903,2.5919,2.5952,2.5968,2.6005,2.5991,2.6005,2.6032,2.6049,2.6084,2.6045,2.6088,2.6089,2.6078,2.6151,2.6158,2.6214,2.6129,2.6131,2.6132,0,2.5716,2.5752,2.5826,2.5863,2.588,2.5914,2.5953,2.5986,2.6018,2.6027,2.6053,2.6055,2.6098,2.6074,2.6133,2.6106,2.6124,2.6135,2.6137,2.614,2.6112,2.6153,2.6232,2.624,2.6145,2.6144,2.6143,0,2.5755,2.5823,2.5875,2.5894,2.5938,2.5962,2.5981,2.6012,2.6036,2.6069,2.6084,2.6121,2.6141,2.6169,2.618,2.6162,2.6237,2.6214,2.6243,2.6243,2.6257,2.6256,2.6338,2.6273,2.6273,2.6273,2.6273,0,2.5821,2.5866,2.5894,2.5926,2.5975,2.599,2.6037,2.6056,2.6083,2.6117,2.6119,2.615,2.6165,2.6198,2.6207,2.6253,2.6262,2.6269,2.627,2.6267,2.6266,2.6278,2.6273,2.6275,2.6275,2.6274,2.6274,0,2.5872,2.5893,2.595,2.5988,2.5999,2.6033,2.6065,2.6095,2.611,2.6153,2.6164,2.6187,2.6226,2.6241,2.6288,2.6294,2.6346,2.6345,2.6336,2.6335,2.6363,2.6359,2.6454,2.6466,2.6395,2.6396,2.6396,0,2.5912,2.5947,2.5989,2.6013,2.6034,2.6072,2.6097,2.6113,2.6138,2.6177,2.6202,2.6241,2.6273,2.6335,2.6354,2.639,2.6389,2.6419,2.6394,2.6389,2.6386,2.6383,2.6386,2.6423,2.6424,2.6424,2.6425,0,2.598,2.5989,2.6026,2.6067,2.6097,2.6129,2.616,2.6179,2.6199,2.6227,2.6268,2.6293,2.6342,2.638,2.6416,2.6433,2.6431,2.6433,2.6441,2.6438,2.643,2.6432,2.6346,2.643,2.643,2.6429,2.6429,2.6429,2.6025,2.6055,2.609,2.6131,2.6157,2.6186,2.6216,2.6236,2.6271,2.6313,2.632,2.6363,2.6393,2.6442,2.6461,2.6493,2.6485,2.6497,2.65,2.6502,2.6503,2.6427,2.65,2.65,2.65,2.65,2.65,0,2.6091,2.6114,2.6152,2.6196,2.6228,2.6227,2.6261,2.6287,2.6325,2.6355,2.6387,2.6433,2.647,2.6493,2.653,2.6551,2.6551,2.656,2.6557,2.6561,2.6509,2.6498,2.6559,2.6559,2.6559,2.6559,2.6559,2.6559,2.6129,2.618,2.6193,2.6256,2.6277,2.6322,2.6341,2.6367,2.639,2.6443,2.6474,2.649,2.6516,2.6555,2.6588,2.6594,2.6606,2.6615,2.662,2.6571,2.6565,2.6559,2.6548,2.6618,2.6618,2.6668,2.6668,2.6669]}]]